Location: Newark
(44.4156°N, 12.1972°E)
Time: 09:49:27
(UTC+00:00)

STARLINK-1124 - Pass Details

Date: 30 January 2020
Orbit: 349 x 350 km, 53.0° (Epoch: 22 February)

Event Time Altitude Azimuth Distance (km) Brightness Sun altitude
Rises 18:08:31 0° 301° (WNW) 2,164 7.5 -20.0°
Reaches altitude 10° 18:10:33 10° 296° (WNW) 1,318 6.4 -20.4°
Enters shadow 18:13:07 50° 247° (WSW) 456 3.5 -20.8°
